• In Austria
  • List of Countries
  • For 7 days
  • Water Temperature
  • Satellite Maps
  • Weather Map
  • News
  • Weather Widgets
  • user-avatar
    Login

    Hourly Weather Tibissa

    Today, 18 July, Wednesday

    Time Temperature Precipitation Wind Pressure Humidity
    00:00 +29°C° 0 mm 2 mps 688 mmHg 40%
    01:00 +28°C° 0 mm 2 mps 688 mmHg 44%
    02:00 +27°C° 0 mm 2 mps 688 mmHg 46%
    03:00 +27°C° 0 mm 1 mps 687 mmHg 48%
    04:00 +26°C° 0 mm 1 mps 687 mmHg 50%
    05:00 +27°C° 0 mm 1 mps 687 mmHg 49%
    06:00 +27°C° 0 mm 1 mps 687 mmHg 47%
    07:00 +27°C° 0 mm 1 mps 687 mmHg 46%
    08:00 +29°C° 0 mm 2 mps 688 mmHg 40%
    09:00 +31°C° 0 mm 2 mps 688 mmHg 34%
    10:00 +34°C° 0 mm 2 mps 689 mmHg 29%
    11:00 +35°C° 0 mm 3 mps 689 mmHg 25%
    12:00 +37°C° 0 mm 3 mps 689 mmHg 22%
    13:00 +39°C° 0 mm 3 mps 689 mmHg 18%
    14:00 +39°C° 0 mm 3 mps 689 mmHg 17%
    15:00 +41°C° 0 mm 4 mps 688 mmHg 16%
    16:00 +41°C° 0 mm 4 mps 688 mmHg 15%
    17:00 +41°C° 0 mm 4 mps 688 mmHg 16%
    18:00 +40°C° 0 mm 4 mps 688 mmHg 16%
    19:00 +40°C° 0 mm 4 mps 688 mmHg 16%
    20:00 +37°C° 0 mm 4 mps 688 mmHg 18%
    21:00 +36°C° 0 mm 3 mps 688 mmHg 20%
    22:00 +35°C° 0 mm 3 mps 688 mmHg 22%
    23:00 +34°C° 0 mm 3 mps 688 mmHg 24%

    Tomorrow, 19 July, Thursday

    Time Temperature Precipitation Wind Pressure Humidity
    00:00 +32°C° 0 mm 2 mps 687 mmHg 25%
    01:00 +32°C° 0 mm 2 mps 687 mmHg 26%
    02:00 +31°C° 0 mm 2 mps 687 mmHg 27%
    03:00 +31°C° 0 mm 2 mps 686 mmHg 27%
    04:00 +30°C° 0 mm 2 mps 686 mmHg 28%
    05:00 +31°C° 0 mm 2 mps 686 mmHg 26%
    06:00 +32°C° 0 mm 2 mps 687 mmHg 25%
    07:00 +32°C° 0 mm 2 mps 687 mmHg 23%
    08:00 +35°C° 0 mm 3 mps 688 mmHg 21%
    09:00 +37°C° 0 mm 4 mps 688 mmHg 18%
    10:00 +40°C° 0 mm 5 mps 688 mmHg 15%
    11:00 +41°C° 0 mm 5 mps 689 mmHg 14%
    12:00 +42°C° 0 mm 6 mps 689 mmHg 13%
    13:00 +44°C° 0 mm 6 mps 689 mmHg 12%
    14:00 +44°C° 0 mm 6 mps 688 mmHg 12%
    15:00 +44°C° 0 mm 6 mps 688 mmHg 12%
    16:00 +44°C° 0 mm 6 mps 688 mmHg 12%
    17:00 +41°C° 0 mm 6 mps 688 mmHg 14%
    18:00 +40°C° 0 mm 6 mps 688 mmHg 16%
    19:00 +39°C° 0 mm 5 mps 688 mmHg 18%
    20:00 +36°C° 0 mm 4 mps 688 mmHg 20%
    21:00 +35°C° 0 mm 3 mps 688 mmHg 22%
    22:00 +34°C° 0 mm 2 mps 688 mmHg 24%
    23:00 +32°C° 0 mm 2 mps 688 mmHg 25%

    Day after tomorrow, 20 July, Friday

    Time Temperature Precipitation Wind Pressure Humidity
    00:00 +32°C° 0 mm 1 mps 688 mmHg 25%
    01:00 +31°C° 0 mm 1 mps 688 mmHg 26%
    02:00 +30°C° 0 mm 1 mps 687 mmHg 26%
    03:00 +30°C° 0 mm 1 mps 687 mmHg 26%
    04:00 +29°C° 0 mm 1 mps 687 mmHg 26%
    05:00 +30°C° 0 mm 1 mps 687 mmHg 25%
    06:00 +31°C° 0 mm 1 mps 687 mmHg 23%
    07:00 +32°C° 0 mm 1 mps 688 mmHg 21%
    08:00 +34°C° 0 mm 1 mps 688 mmHg 19%
    09:00 +36°C° 0 mm 2 mps 688 mmHg 17%
    10:00 +38°C° 0 mm 2 mps 689 mmHg 16%
    11:00 +39°C° 0 mm 2 mps 689 mmHg 15%
    12:00 +40°C° 0 mm 3 mps 689 mmHg 14%
    13:00 +42°C° 0 mm 3 mps 689 mmHg 13%
    14:00 +42°C° 0 mm 3 mps 689 mmHg 13%
    15:00 +42°C° 0 mm 3 mps 688 mmHg 12%
    16:00 +42°C° 0 mm 4 mps 688 mmHg 12%
    17:00 +42°C° 0 mm 3 mps 688 mmHg 13%
    18:00 +40°C° 0 mm 3 mps 688 mmHg 13%
    19:00 +39°C° 0 mm 3 mps 688 mmHg 14%
    20:00 +38°C° 0 mm 3 mps 688 mmHg 17%
    21:00 +37°C° 0 mm 3 mps 688 mmHg 19%
    22:00 +36°C° 0 mm 3 mps 689 mmHg 21%
    23:00 +35°C° 0 mm 3 mps 688 mmHg 24%

    21 July, Saturday

    Time Temperature Precipitation Wind Pressure Humidity
    00:00 +34°C° 0 mm 2 mps 688 mmHg 27%
    01:00 +32°C° 0 mm 2 mps 688 mmHg 30%
    02:00 +31°C° 0 mm 2 mps 687 mmHg 31%
    03:00 +31°C° 0 mm 2 mps 687 mmHg 33%
    04:00 +30°C° 0 mm 2 mps 687 mmHg 34%
    05:00 +31°C° 0 mm 2 mps 687 mmHg 33%
    06:00 +31°C° 0 mm 2 mps 687 mmHg 32%
    07:00 +33°C° 0 mm 3 mps 687 mmHg 30%
    08:00 +35°C° 0 mm 5 mps 688 mmHg 25%
    09:00 +38°C° 0 mm 7 mps 688 mmHg 20%
    10:00 +40°C° 0 mm 9 mps 689 mmHg 16%
    11:00 +42°C° 0 mm 9 mps 688 mmHg 14%
    12:00 +43°C° 0 mm 9 mps 688 mmHg 13%
    13:00 +44°C° 0 mm 10 mps 688 mmHg 11%
    14:00 +44°C° 0 mm 9 mps 688 mmHg 11%
    15:00 +44°C° 0 mm 9 mps 688 mmHg 11%
    16:00 +45°C° 0 mm 9 mps 688 mmHg 10%
    17:00 +44°C° 0 mm 7 mps 687 mmHg 12%
    18:00 +42°C° 0 mm 6 mps 687 mmHg 13%
    19:00 +41°C° 0 mm 5 mps 687 mmHg 15%
    20:00 +38°C° 0 mm 4 mps 687 mmHg 19%
    21:00 +36°C° 0 mm 3 mps 687 mmHg 24%
    22:00 +34°C° 0 mm 2 mps 687 mmHg 29%
    23:00 +34°C° 0 mm 2 mps 687 mmHg 31%

    22 July, Sunday

    Time Temperature Precipitation Wind Pressure Humidity
    00:00 +32°C° 0 mm 2 mps 687 mmHg 34%
    01:00 +31°C° 0 mm 1 mps 687 mmHg 36%
    02:00 +31°C° 0 mm 1 mps 686 mmHg 38%
    03:00 +30°C° 0 mm 2 mps 686 mmHg 40%
    04:00 +29°C° 0 mm 2 mps 686 mmHg 43%
    05:00 +29°C° 0 mm 2 mps 686 mmHg 43%
    06:00 +29°C° 0 mm 2 mps 686 mmHg 43%
    07:00 +29°C° 0 mm 2 mps 686 mmHg 44%
    08:00 +30°C° 0 mm 2 mps 687 mmHg 40%
    09:00 +31°C° 0 mm 3 mps 687 mmHg 37%
    10:00 +33°C° 0 mm 3 mps 687 mmHg 33%
    11:00 +34°C° 0 mm 3 mps 687 mmHg 30%
    12:00 +36°C° 0 mm 3 mps 687 mmHg 26%
    13:00 +37°C° 0 mm 4 mps 688 mmHg 23%
    14:00 +37°C° 0 mm 4 mps 687 mmHg 22%
    15:00 +37°C° 0 mm 4 mps 687 mmHg 21%
    16:00 +38°C° 0 mm 4 mps 686 mmHg 21%
    17:00 +37°C° 0 mm 5 mps 686 mmHg 23%
    18:00 +36°C° 0 mm 6 mps 686 mmHg 25%
    19:00 +35°C° 0 mm 6 mps 686 mmHg 27%
    20:00 +33°C° 0.1 mm 5 mps 687 mmHg 31%
    21:00 +32°C° 0.1 mm 5 mps 687 mmHg 35%
    22:00 +29°C° 0.1 mm 4 mps 687 mmHg 39%
    23:00 +28°C° 0 mm 3 mps 687 mmHg 42%

    23 July, Monday

    Time Temperature Precipitation Wind Pressure Humidity
    00:00 +27°C° 0 mm 3 mps 687 mmHg 44%
    01:00 +27°C° 0 mm 2 mps 686 mmHg 46%
    02:00 +26°C° 0 mm 3 mps 686 mmHg 47%
    03:00 +25°C° 0 mm 3 mps 686 mmHg 48%
    04:00 +25°C° 0 mm 3 mps 686 mmHg 48%
    05:00 +25°C° 0 mm 4 mps 686 mmHg 46%
    06:00 +25°C° 0 mm 4 mps 686 mmHg 44%
    07:00 +25°C° 0 mm 5 mps 686 mmHg 42%
    08:00 +26°C° 0 mm 6 mps 686 mmHg 36%
    09:00 +27°C° 0 mm 6 mps 687 mmHg 31%
    10:00 +29°C° 0 mm 7 mps 687 mmHg 25%
    11:00 +30°C° 0 mm 7 mps 687 mmHg 22%
    12:00 +32°C° 0 mm 8 mps 687 mmHg 20%
    13:00 +34°C° 0 mm 8 mps 687 mmHg 17%
    14:00 +34°C° 0 mm 8 mps 687 mmHg 17%
    15:00 +34°C° 0 mm 8 mps 687 mmHg 18%
    16:00 +35°C° 0 mm 8 mps 686 mmHg 18%
    17:00 +34°C° 0 mm 8 mps 686 mmHg 20%
    18:00 +32°C° 0 mm 7 mps 686 mmHg 22%
    19:00 +30°C° 0 mm 7 mps 686 mmHg 24%
    20:00 +29°C° 0 mm 6 mps 686 mmHg 27%
    21:00 +28°C° 0 mm 4 mps 686 mmHg 30%
    22:00 +27°C° 0 mm 3 mps 687 mmHg 33%
    23:00 +26°C° 0 mm 3 mps 686 mmHg 35%
    Show more